Location: Sobotiste
(48.7170°N, 17.4000°E)
Time: 16:42:13
(UTC+02:00)

ISS - Visible Passes

Search period start: 21 May 2026 00:00
Search period end: 31 May 2026 00:00
Orbit: 414 x 424 km, 51.6° (Epoch: 21 May)

Date Brightness Start Highest point End Pass type
(mag) Time Alt. Az. Time Alt. Az. Time Alt. Az.
21 May -3.5 21:52:14 10° WNW 21:55:30 56° SSW 21:57:43 19° SE visible
21 May -1.1 23:30:34 10° WSW 23:30:39 10° WSW 23:30:39 10° WSW visible
22 May -1.9 22:41:54 10° W 22:44:13 17° SW 22:44:38 17° SSW visible
23 May -2.3 21:53:47 10° W 21:56:38 26° SW 21:58:39 15° SSE visible
25 May -1.2 21:56:19 10° WSW 21:57:31 12° SW 21:58:42 10° SSW visible
